This is the latest recevied weather packets stored in our database for station/object VE6CWS-7. If no packets are shown the sender has not sent any weather packets the latest 10 day(s).
| Time | Temp. | Humidity | Pressure | Rain* | Wind** | Luminosity | Snow |
|---|---|---|---|---|---|---|---|
| 1777564907 | 11.67° C | 46% | 1021.3 hPa | 0 mm | - | - | - |
| 1777563948 | 11.11° C | 46% | 1021.5 hPa | 0 mm | - | - | - |
| 1777563046 | 11.11° C | 48% | 1021.5 hPa | 0 mm | - | - | - |
| 1777562141 | 10° C | 52% | 1021.7 hPa | 0 mm | - | - | - |
| 1777561299 | 8.89° C | 55% | 1021.8 hPa | 0 mm | - | - | - |
| 1777560352 | 7.78° C | 59% | 1022 hPa | 0 mm | - | - | - |
| 1777559438 | 6.67° C | 61% | 1022 hPa | 0 mm | - | - | - |
| 1777558535 | 5.56° C | 65% | 1022 hPa | 0 mm | - | - | - |
| 1777557694 | 4.44° C | 65% | 1022.1 hPa | 0 mm | - | - | - |
| 1777556751 | 3.89° C | 67% | 1022.1 hPa | 0 mm | - | - | - |
| 1777555860 | 2.78° C | 69% | 1022.1 hPa | 0 mm | - | - | - |
| 1777554953 | 2.78° C | 67% | 1022.2 hPa | 0 mm | - | - | - |
| 1777554108 | 2.22° C | 68% | 1022.2 hPa | 0 mm | - | - | - |
| 1777553151 | 2.22° C | 67% | 1022.4 hPa | 0 mm | - | - | - |
| 1777552248 | 2.22° C | 68% | 1022 hPa | 0 mm | - | - | - |
| 1777551343 | 2.22° C | 67% | 1021.9 hPa | 0 mm | - | - | - |
| 1777550501 | 2.22° C | 67% | 1022 hPa | 0 mm | - | - | - |
| 1777549544 | 1.67° C | 69% | 1022 hPa | 0 mm | - | - | - |
| 1777548641 | 2.22° C | 69% | 1022.1 hPa | 0 mm | - | - | - |
| 1777547738 | 2.22° C | 67% | 1022.2 hPa | 0 mm | - | - | - |
| 1777546897 | 2.22° C | 67% | 1022.4 hPa | 0 mm | - | - | - |
| 1777545936 | 2.78° C | 66% | 1022.5 hPa | 0 mm | - | - | - |
| 1777545034 | 2.78° C | 65% | 1022.5 hPa | 0 mm | - | - | - |
| 1777544134 | 3.33° C | 65% | 1022.6 hPa | 0 mm | - | - | - |
| 1777543291 | 2.78° C | 67% | 1022.7 hPa | 0 mm | - | - | - |
* Rain latest hour (hover to see other rain measurements)
** Current wind speed in m/s (hover to see current wind gust speed)